Location: Campestrin
(46.4667°N, 11.7167°E)
Time: 16:05:13
(UTC+00:00)

Okean 3 Rocket - Pass Details

Date: 18 April 2021
Orbit: 615 x 644 km, 82.5° (Epoch: 07 May)

Event Time Altitude Azimuth Distance (km) Brightness Sun altitude
Rises 20:52:42 0° 350° (N) 2,965 8.0 -24.5°
Reaches altitude 10° 20:54:58 10° 350° (N) 2,048 7.0 -24.7°
Enters shadow 20:59:21 82° 328° (NNW) 652 3.6 -25.2°
